Location: Unspecified
(48.7170°N, 0.0000°E)
Time: 11:40:31
(UTC+00:00)

ISS - Pass Details

Date: 26 May 2019
Orbit: 408 x 418 km, 51.6° (Epoch: 17 June)

Event Time Altitude Azimuth Distance (km) Brightness Sun altitude
Rises 23:44:56 0° 289° (WNW) 2,364 0.3 -20.0°
Reaches altitude 10° 23:47:10 10° 278° (W) 1,499 -0.8 -20.0°
Enters shadow 23:48:13 17° 267° (W) 1,144 -1.6 -20.0°
